Regional Weather Roundup
Issued by NWS Little Rock, AR

Home | Current Version | Previous Version | Text Only | Print | Product List | Glossary On
Versions: 1 2 3 4 5 6 7 8 9 10 11 12 13 14 15 16 17 18 19 20 21 22 23 24 25 26 27 28 29 30 31
000
ASUS44 KLZK 250305
RWRLZK

WEATHER ROUNDUP FOR ARKANSAS
NATIONAL WEATHER SERVICE LITTLE ROCK AR
1000 PM CDT THU MAY 24 2018

NOTE: "FAIR" INDICATES FEW OR NO CLOUDS BELOW 12,000 FEET WITH NO
SIGNIFICANT WEATHER AND/OR OBSTRUCTIONS TO VISIBILITY.

ARZ001-003-010-029-250400-
NORTHWEST ARKANSAS

CITY           SKY/WX    TMP DP  RH WIND       PRES   REMARKS
FAYETTEVILLE   PTCLDY    67  65  93 CALM      30.05F
FORT SMITH     CLOUDY    74  69  85 E5        30.02S
HARRISON       CLOUDY    67  67 100 SE3       30.07F
BENTONVILLE    MOCLDY    72  66  83 SE3       30.08R HAZE
ROGERS         CLOUDY    71  66  84 SE5       30.07S
SILOAM SPGS    MOCLDY    69  68  96 SE6       30.05F
HIGHFILL       PTCLDY    71  66  84 S3        30.06S
$$

ARZ004-005-016-250400-
NORTH CENTRAL ARKANSAS

CITY           SKY/WX    TMP DP  RH WIND       PRES   REMARKS
BATESVILLE     PTCLDY    68  66  93 NW3       30.05R
FLIPPIN        PTCLDY    67  65  93 CALM      30.06R
MTN HOME       PTCLDY    67  64  90 CALM      30.06R
$$

ARZ040-041-250400-
WEST CENTRAL ARKANSAS

CITY           SKY/WX    TMP DP  RH WIND       PRES   REMARKS
MENA           MOCLDY   N/A N/A N/A CALM      30.07R
MOUNT IDA      CLOUDY    72  72 100 CALM      30.03S
$$

ARZ009-017-025-026-028-250400-
NORTHEAST ARKANSAS

CITY           SKY/WX    TMP DP  RH WIND       PRES   REMARKS
CORNING        FAIR      75  75 100 CALM      30.04R
JONESBORO      FAIR      73  73 100 CALM      30.03R
NEWPORT        FAIR      76  71  85 SW3       30.04R
WALNUT RIDGE     N/A     76  74  93 CALM      30.03S
BLYTHEVILLE    FAIR      78  68  71 CALM      30.03S
$$

ARZ022-023-033-042-044-250400-
CENTRAL ARKANSAS

CITY           SKY/WX    TMP DP  RH WIND       PRES   REMARKS
LITTLE ROCK    CLOUDY    77  72  84 CALM      30.03R
N LITTLE ROCK    N/A     73  71  92 CALM      29.99S
JACKSONVILLE   CLEAR     75  73  93 CALM      30.02R
CONWAY           N/A     75  73  94 CALM      30.03R
SEARCY         FAIR      73  73 100 CALM      30.04R
HOT SPRINGS    CLOUDY    77  73  87 CALM      30.05R
RUSSELLVILLE   CLOUDY    74  73  97 CALM      30.03R
CLINTON        FAIR      70  68  94 CALM      30.05S
$$

ARZ036-250400-
EAST ARKANSAS

CITY           SKY/WX    TMP DP  RH WIND       PRES   REMARKS
WEST MEMPHIS   FAIR      74  74 100 CALM      30.03R
$$

ARZ050-053-066-070-073-250400-
SOUTHWEST ARKANSAS

CITY           SKY/WX    TMP DP  RH WIND       PRES   REMARKS
ARKADELPHIA    FAIR      74  73  97 CALM      30.04R FOG
CAMDEN         FAIR      75  68  78 CALM      30.02S
TEXARKANA      CLEAR     78  72  81 SE6       30.03R
EL DORADO      FAIR      76  73  91 CALM      30.05R
DE QUEEN       CLEAR     74  69  85 E3        30.01R
$$

ARZ056-057-069-250400-
SOUTHEAST ARKANSAS

CITY           SKY/WX    TMP DP  RH WIND       PRES   REMARKS
PINE BLUFF     FAIR      76  73  91 CALM      30.03R
STUTTGART      FAIR      78  71  79 SE7       30.04R
MONTICELLO     LGT RAIN  73  68  84 W6        30.05S

$$






USA.gov is the U.S. government's official web portal to all federal, state and local government web resources and services.